User: anonymous   Login
Location: State Camp
(41.2367°N, 77.7828°W)
Time: 19:55:03
(UTC-04:00)
Language:

Cosmos 1674 Rocket - Orbit

View from above orbital plane
View from above orbital plane
View from above satellite
View from above satellite

Ground track
Ground track

The orbit data is extracted from the following two-line orbital elements,

1 15945U 85069B   16272.78885084  .00000145  00000-0  14512-4 0  9995
2 15945  82.5307  17.8087 0021195  66.7984 293.5460 14.83882573682262
Epoch (UTC): 28 September 2016 18:55:56
Eccentricity: 0.0021195
inclination: 82.5307°
perigee height: 602 km
apogee height: 632 km
right ascension of ascending node: 17.8087°
argument of perigee: 66.7984°
revolutions per day: 14.83882573
mean anomaly at epoch: 293.5460°
orbit number at epoch: 68226

The dashed part of the orbit path shows where the satellite is in the earth's shadow,  

DLR